Notices

What's New in latest Release from April 7th, 2021:

- Updated Glossary, including Speed of Maximum Gust, and Total Hourly Precipitation

- Updated national and regional climate services offices contacts and prices information

- Addition of station inventory lists for 1981-2010, 1971-2000, and 1961-1990 Normals.

If you haven't already, please take our survey and provide feedback about our website: https://eccc.sondage-survey.ca/f/LanguageSelection.aspx?s=442ca660-fcf1-47c0-95a9-59707d6fd709

Hourly Data Report for January 24, 2021

OTTAWA INTL A
ONTARIO
Current Station Operator: NAVCAN

45°19'00.000" N
75°40'00.000" W
114.90 m
6106001
71628
YOW

Download Data

Hourly Data (January 2021)
Hourly Data Report for January 24, 2021
TIME
LST
Temp Definition
°C
Dew Point Definition
°C
Rel Hum Definition
%
Precip. Amount Definition
mm

Wind Dir Definition
10's deg

Wind Spd Definition
km/h
Visibility Definition
km
Stn Press Definition
kPa
Hmdx Definition


Wind Chill Definition


Weather Definition


00:00 -16.7 -20.3 74   29 20 24.1 101.00   -26 LegendNANA
01:00 -16.9 -20.6 73   29 34 24.1 100.97   -29 Clear
02:00 -17.3 -20.9 75   29 31 24.1 101.00   -29 LegendNANA
03:00 -17.7 -20.9 76   28 30 24.1 101.03   -30 LegendNANA
04:00 -18.1 -21.2 77   28 32 24.1 101.04   -30 Clear
05:00 -18.2 -21.5 75   29 23 24.1 101.07   -29 LegendNANA
06:00 -18.6 -21.9 76   29 21 24.1 101.07   -29 LegendNANA
07:00 -18.5 -21.9 75   29 22 24.1 101.11   -29 Clear
08:00 -18.7 -21.8 77   29 24 24.1 101.11   -30 LegendNANA
09:00 -18.1 -21.7 74   29 23 24.1 101.13   -29 LegendNANA
10:00 -17.1 -21.5 69   29 24 24.1 101.14   -28 Clear
11:00 -15.9 -21.1 65   29 22 24.1 101.07   -26 LegendNANA
12:00 -14.6 -20.2 63   29 21 24.1 100.97   -24 LegendNANA
13:00 -13.0 -19.3 59   29 22 24.1 100.89   -22 Mainly Clear
14:00 -11.7 -18.6 57   29 23 24.1 100.82   -21 LegendNANA
15:00 -10.9 -18.1 56   29 26 24.1 100.81   -20 LegendNANA
16:00 -10.9 -17.9 57   26 16 24.1 100.81   -18 Clear
17:00 -12.7 -18.6 62   24 12 24.1 100.83   -19 LegendNANA
18:00 -13.7 -19.1 64   27 10 24.1 100.80   -20 LegendNANA
19:00 -13.5 -18.8 65   26 10 24.1 100.83   -19 Clear
20:00 -14.4 -19.2 67   28 10 24.1 100.80   -21 LegendNANA
21:00 -14.2 -18.2 72   25 5 24.1 100.77   -18 LegendNANA
22:00 -14.8 -18.0 77   24 8 24.1 100.78   -20 Mainly Clear
23:00 -14.5 -17.5 78   24 8 24.1 100.73   -20 LegendNANA

Notes on Data Quality.

Legend

  • E = Estimated
  • M = Missing
  • NA = Not Available*
  • [empty] = Indicates an unobserved value
Date modified: